Find Starlink 11151

NORAD ID: 60049 Int'l Des: 2024-112 Owner: SPXS Country: US Constellation: starlink operational
又名: STARLINK-11151 [DTC] celestrak
LEOCIRCULAR

当前视图

正在加载3D地球...

About Starlink 11151

Starlink 11151 (NORAD 60049) is a starlink constellation satellite (v2 mini d2c) launched Jun 8, 2024 by SPXS of US. It operates in LEO, CIRCULAR orbit with a mass of 960.00 kg.

即将过境

Passes for default location (London). Set your location on the main map for personalized predictions.

高度历史

Loading altitude history...

两行轨道根数

1 60049U 24112M 26254.79139061 -.00000499 00000-0 73371-6 0 9994
2 60049 53.1592 68.6178 0000970 76.0657 284.0469 15.69710050130213
Epoch: Sep 11, 2026 • Age: 25 hours

当前状态

高度 361.7 km
远地点 / 近地点 N/A
速度 7.70 km/s
星下点 34.41°N, 167.94°E
发射日期 Jun 8, 2024
运行时间 2.2 years
类型 internet

技术详情

分类 Payload
质量 960.00 kg
干质量 910.00 kg
总质量 960.00 kg
长度 0.30 m
直径 4.10 m
跨度 29.00 m
形状 Box + pan
制造商 SPXS
平台类型 Starlink V2MD
阶段状态 In Orbit
所有者/国家 SPXS/US

Most Searched